Regional Weather Roundup
Issued by NWS

Home | Current Version | Previous Version | Graphics & Text | Print | Product List | Glossary On
Versions: 1 2 3 4 5 6 7 8 9 10 11 12 13 14 15 16 17 18 19 20 21 22 23 24 25 26 27 28 29 30 31 32 33 34 35 36 37 38 39 40 41 42 43 44 45 46 47 48 49 50
000
ASUS43 KBIS 031902
RWRND

NORTH DAKOTA REGIONAL WEATHER ROUNDUP
NATIONAL WEATHER SERVICE BISMARCK ND
200 PM CDT MON AUG 03 2015

NOTE: "FAIR" INDICATES FEW OR NO CLOUDS BELOW 12,000 FEET WITH NO
SIGNIFICANT WEATHER AND/OR OBSTRUCTIONS TO VISIBILITY.


NDZ001>003-009>011-017-032000-
NORTHWEST NORTH DAKOTA

CITY           SKY/WX    TMP DP  RH WIND       PRES   REMARKS
WILLISTON      SUNNY     80  46  30 NE6       30.01F
MINOT          SUNNY     76  43  30 MISG      30.00F
MINOT AFB      SUNNY     79  43  27 VRB3      29.99F
$$

NDZ018>021-031>035-040>046-032000-
SOUTHWEST NORTH DAKOTA

CITY           SKY/WX    TMP DP  RH WIND       PRES   REMARKS
BISMARCK       SUNNY     78  47  33 VRB7      30.01F
DICKINSON      SUNNY     78  50  37 VRB3      30.01F
GARRISON         N/A     75  47  36 VRB3      30.01F
HETTINGER ARPT SUNNY     79  50  36 CALM      30.03F
$$

NDZ004>008-012>016-024-026-027-054-032000-
NORTHEAST NORTH DAKOTA

CITY           SKY/WX    TMP DP  RH WIND       PRES   REMARKS
GRAND FORKS    MOSUNNY   75  49  39 NW12G23   29.93S
GRND FRKS AFB  SUNNY     75  50  41 N14G23    29.94S
DEVILS LAKE    SUNNY     73  45  35 NW10G18   29.96F
$$

NDZ022-023-025-028>030-036>039-047>053-032000-
SOUTHEAST NORTH DAKOTA

CITY           SKY/WX    TMP DP  RH WIND       PRES   REMARKS
FARGO          SUNNY     78  49  35 NW18      29.93F
JAMESTOWN      SUNNY     75  44  33 NW8       29.98F
$$



USA.gov is the U.S. government's official web portal to all federal, state and local government web resources and services.